User: anonymous   Login
Location: Unspecified
(0.0000°N, 0.0000°E)
Time: 18:23:07
(UTC+00:00)
Language:

STARLINK-3517 - Orbit

View from above orbital plane
View from above orbital plane
View from above satellite
View from above satellite

Ground track
Ground track

The orbit is defined by the following mean orbital elements,

1 51735U          26145.49797170 +.00000000 +00000-0 +98836-4 0 00004
2 51735  53.2118 334.3159 0001364  93.8406 266.2742 15.08831686    00
Epoch (UTC): 25 May 2026 11:57:04
Eccentricity: 0.0001364
inclination: 53.2118°
perigee height: 539 km
apogee height: 541 km
right ascension of ascending node: 334.3159°
argument of perigee: 93.8406°
revolutions per day: 15.08831686
mean anomaly at epoch: 266.2742°

The dashed part of the orbit path shows where the satellite is in the earth's shadow,  

DLR